KC1UIX-13 Weather Reports


Display with metric or nautical units.
time (UTC)temp
F
wind
direction
speed
MPH
gust
MPH
rain 1hr
in
rain 24hr
in
rain mn
in
humidity
%
barometer
mb
20260831131021 63 2 2.0 4.0 0.00 0.17 0.00 75 1020.3
20260831130021 62 2 3.0 5.0 0.00 0.17 0.00 76 1020.3
20260831125019 62 4 2.0 5.0 0.00 0.17 0.00 78 1020.3
20260831124019 61 4 3.0 5.0 0.00 0.17 0.00 79 1020.2
20260831123059 60 348 2.0 5.0 0.00 0.17 0.00 81 1020.0
20260831122019 59 342 2.0 6.0 0.00 0.17 0.00 83 1019.9
20260831121019 59 343 1.0 4.0 0.00 0.17 0.00 84 1019.9
20260831120019 58 341 2.0 5.0 0.00 0.17 0.00 86 1019.8
20260831115019 57 354 1.0 5.0 0.00 0.17 0.00 89 1019.8
20260831114020 56 357 1.0 4.0 0.00 0.17 0.00 92 1019.8
20260831113019 54 330 1.0 2.0 0.00 0.17 0.00 93 1019.9
20260831112020 54 5 1.0 2.0 0.00 0.17 0.00 93 1019.7
20260831111018 53 12 0.0 2.0 0.00 0.17 0.00 93 1019.7
20260831110020 53 0 0.0 2.0 0.00 0.17 0.00 93 1019.7
20260831105018 53 337 0.0 2.0 0.00 0.17 0.00 92 1019.6
20260831104021 53 334 0.0 2.0 0.00 0.17 0.00 92 1019.5
20260831103020 53 313 0.0 2.0 0.00 0.17 0.00 92 1019.4
20260831102021 53 304 0.0 2.0 0.00 0.17 0.00 91 1019.2
20260831101018 53 332 0.0 1.0 0.00 0.17 0.00 91 1019.2
20260831100018 53 332 0.0 1.0 0.00 0.17 0.00 90 1019.1
20260831095018 53 319 0.0 1.0 0.00 0.17 0.00 89 1019.0
20260831094018 54 292 0.0 1.0 0.00 0.17 0.00 89 1018.8
20260831093021 55 286 0.0 1.0 0.00 0.17 0.00 88 1018.8
20260831092019 56 301 0.0 1.0 0.00 0.17 0.00 87 1018.7
20260831091040 56 61 0.0 1.0 0.00 0.17 0.00 86 1018.6
20260831090019 56 13 1.0 4.0 0.00 0.17 0.00 86 1018.4
20260831085020 56 13 2.0 5.0 0.00 0.17 0.00 87 1018.2
20260831084020 56 2 2.0 4.0 0.00 0.17 0.00 87 1018.1
20260831083020 56 6 2.0 5.0 0.00 0.17 0.00 87 1018.0
20260831082020 56 1 2.0 4.0 0.00 0.17 0.00 87 1017.9
20260831081020 56 359 2.0 6.0 0.00 0.17 0.00 88 1017.9
20260831080021 56 11 2.0 4.0 0.00 0.17 0.00 88 1017.9
20260831075020 56 14 1.0 4.0 0.00 0.17 0.00 89 1017.8
20260831074018 56 356 2.0 4.0 0.00 0.17 0.00 89 1017.8
20260831073018 57 343 1.0 3.0 0.00 0.17 0.00 89 1017.7
20260831072018 57 345 1.0 3.0 0.00 0.17 0.00 88 1017.6
20260831071021 57 355 2.0 4.0 0.00 0.17 0.00 88 1017.6
20260831070021 57 339 1.0 5.0 0.00 0.17 0.00 89 1017.5
20260831065020 58 308 1.0 3.0 0.00 0.17 0.00 88 1017.4
20260831064019 58 351 1.0 3.0 0.00 0.17 0.00 89 1017.3
20260831063019 58 349 1.0 4.0 0.00 0.17 0.00 89 1017.1
20260831062018 58 350 2.0 4.0 0.00 0.17 0.00 90 1017.1
20260831061019 58 341 1.0 3.0 0.00 0.17 0.00 90 1017.0
20260831060020 58 0 1.0 2.0 0.00 0.17 0.00 90 1016.9
20260831055019 58 360 2.0 3.0 0.00 0.17 0.00 91 1017.1
20260831054019 58 342 2.0 4.0 0.00 0.17 0.00 92 1016.9
20260831053020 58 335 1.0 3.0 0.00 0.17 0.00 92 1016.9
20260831052020 59 349 1.0 2.0 0.00 0.17 0.00 92 1016.8
20260831051020 59 334 1.0 2.0 0.00 0.17 0.00 92 1016.8
20260831050018 59 332 0.0 2.0 0.00 0.17 0.00 91 1016.8
20260831045020 59 358 1.0 2.0 0.00 0.17 0.00 90 1016.8
20260831044020 60 4 0.0 2.0 0.00 0.17 0.00 90 1016.8
20260831043021 61 295 0.0 1.0 0.00 0.17 0.00 89 1016.9
20260831042021 61 358 0.0 2.0 0.00 0.17 0.00 88 1016.9
20260831041018 61 335 1.0 2.0 0.00 0.17 0.00 88 1016.7
20260831040019 62 322 1.0 2.0 0.00 0.17 0.00 88 1016.8
20260831035018 63 335 1.0 2.0 0.00 0.17 0.17 86 1016.7
20260831034042 63 6 1.0 3.0 0.00 0.17 0.17 85 1016.8
20260831033019 64 346 1.0 4.0 0.00 0.17 0.17 83 1016.8
20260831032039 65 359 2.0 5.0 0.00 0.17 0.17 82 1016.7
20260831031019 66 5 3.0 7.0 0.01 0.17 0.17 84 1016.9
20260831030020 66 2 3.0 6.0 0.01 0.17 0.17 89 1016.8
20260831025019 66 13 3.0 7.0 0.01 0.17 0.17 89 1016.7
20260831024020 67 349 2.0 4.0 0.01 0.17 0.17 88 1016.2
20260831023020 66 280 1.0 3.0 0.01 0.17 0.17 88 1016.1
20260831022020 67 311 1.0 3.0 0.01 0.17 0.17 87 1016.1
20260831021020 67 325 1.0 3.0 0.01 0.16 0.16 87 1016.1
20260831020020 67 328 1.0 2.0 0.01 0.16 0.16 86 1015.9
20260831015020 67 321 1.0 3.0 0.01 0.16 0.16 85 1015.8
20260831014038 66 317 1.0 4.0 0.16 0.16 0.16 87 1015.7
20260831013018 66 298 1.0 2.0 0.15 0.15 0.15 89 1015.5
20260831012021 67 341 1.0 2.0 0.15 0.15 0.15 88 1015.4
20260831011041 68 4 1.0 2.0 0.15 0.15 0.15 86 1015.3
20260831010021 69 21 0.0 2.0 0.15 0.15 0.15 83 1015.3
20260831005018 70 8 1.0 5.0 0.15 0.15 0.15 77 1015.5
20260831004019 70 18 1.0 3.0 0.00 0.00 0.00 76 1015.1
20260831003019 70 8 0.0 2.0 0.00 0.00 0.00 73 1014.9
20260831002019 70 327 0.0 1.0 0.00 0.00 0.00 71 1014.9
20260831001019 71 292 0.0 0.0 0.00 0.00 0.00 70 1014.7
20260831000019 71 265 0.0 2.0 0.00 0.00 0.00 70 1014.5
20260830235019 71 259 0.0 1.0 0.00 0.00 0.00 69 1014.5
20260830234020 71 352 1.0 2.0 0.00 0.00 0.00 69 1014.6
20260830233020 72 292 1.0 2.0 0.00 0.00 0.00 68 1014.6
20260830232020 73 255 1.0 3.0 0.00 0.00 0.00 66 1014.5
20260830231020 73 249 0.0 4.0 0.00 0.00 0.00 63 1014.5
20260830230120 73 257 0.0 2.0 0.00 0.00 0.00 63 1014.4
20260830225040 74 246 1.0 4.0 0.00 0.00 0.00 63 1014.6
20260830224041 74 245 1.0 4.0 0.00 0.00 0.00 64 1014.8
20260830223021 75 253 0.0 2.0 0.00 0.00 0.00 65 1014.9
20260830222020 76 290 0.0 1.0 0.00 0.00 0.00 64 1014.9
20260830221018 76 204 0.0 1.0 0.00 0.00 0.00 61 1015.0
20260830220019 77 267 0.0 2.0 0.00 0.00 0.00 62 1015.2
20260830215018 77 280 0.0 1.0 0.00 0.00 0.00 61 1015.3
20260830214018 77 282 1.0 3.0 0.00 0.00 0.00 59 1015.3
20260830213019 77 297 1.0 3.0 0.00 0.00 0.00 58 1015.3
20260830212019 77 302 1.0 4.0 0.00 0.00 0.00 57 1015.2
20260830211019 77 276 2.0 4.0 0.00 0.00 0.00 56 1015.2
20260830210019 77 258 2.0 4.0 0.00 0.00 0.00 56 1015.3
20260830205020 77 259 2.0 4.0 0.00 0.00 0.00 56 1015.4
20260830204020 77 271 2.0 4.0 0.00 0.00 0.00 55 1015.4
20260830203020 77 270 2.0 5.0 0.00 0.00 0.00 54 1015.4
20260830202037 77 258 3.0 6.0 0.00 0.00 0.00 53 1015.5
20260830201040 77 260 3.0 7.0 0.00 0.00 0.00 53 1015.7
20260830200020 77 264 4.0 8.0 0.00 0.00 0.00 52 1015.8
20260830195021 77 257 3.0 6.0 0.00 0.00 0.00 55 1016.0
20260830194020 76 262 3.0 6.0 0.00 0.00 0.00 56 1016.2
20260830193018 76 269 4.0 7.0 0.00 0.00 0.00 56 1016.3
20260830192018 76 270 3.0 8.0 0.00 0.00 0.00 56 1016.4
20260830191038 76 286 4.0 9.0 0.00 0.00 0.00 57 1016.6
20260830190059 76 271 4.0 7.0 0.00 0.00 0.00 57 1016.7
20260830185042 76 295 3.0 8.0 0.00 0.00 0.00 58 1016.7
20260830184019 76 287 4.0 9.0 0.00 0.00 0.00 57 1016.8
20260830183019 76 280 4.0 7.0 0.00 0.00 0.00 58 1017.0
20260830182019 76 271 4.0 9.0 0.00 0.00 0.00 57 1017.1
20260830181019 76 266 5.0 10.0 0.00 0.00 0.00 57 1017.2
20260830180019 76 260 4.0 9.0 0.00 0.00 0.00 58 1017.4
20260830175019 76 278 5.0 9.0 0.00 0.00 0.00 57 1017.5
20260830174020 76 266 4.0 8.0 0.00 0.00 0.00 58 1017.4
20260830173020 76 259 4.0 9.0 0.00 0.00 0.00 58 1017.3
20260830172020 76 264 3.0 6.0 0.00 0.00 0.00 57 1017.1
20260830171041 76 271 3.0 8.0 0.00 0.00 0.00 56 1017.0
20260830170020 76 280 3.0 7.0 0.00 0.00 0.00 57 1017.0
20260830165021 77 263 3.0 7.0 0.00 0.00 0.00 58 1017.3
20260830164037 77 263 3.0 7.0 0.00 0.00 0.00 58 1017.4
20260830163039 77 259 4.0 8.0 0.00 0.00 0.00 58 1017.4
20260830162018 76 270 3.0 10.0 0.00 0.00 0.00 58 1017.3
20260830161041 75 234 2.0 8.0 0.00 0.00 0.00 62 1017.5
20260830160042 76 216 1.0 4.0 0.00 0.00 0.00 61 1017.6
20260830155019 76 210 2.0 7.0 0.00 0.00 0.00 60 1017.7
20260830154039 74 254 2.0 6.0 0.00 0.00 0.00 60 1017.9
20260830153019 73 235 1.0 4.0 0.00 0.00 0.00 65 1017.9
20260830152019 73 237 2.0 5.0 0.00 0.00 0.00 65 1018.0
20260830151019 74 229 1.0 6.0 0.00 0.00 0.00 61 1018.0
20260830150018 73 241 2.0 5.0 0.00 0.00 0.00 61 1018.0
20260830145019 73 251 2.0 5.0 0.00 0.00 0.00 62 1018.2
20260830144020 72 251 3.0 5.0 0.00 0.00 0.00 63 1018.3
20260830143020 71 257 2.0 6.0 0.00 0.00 0.00 64 1018.4
20260830142020 71 254 2.0 4.0 0.00 0.00 0.00 65 1018.5
20260830141020 70 249 2.0 4.0 0.00 0.00 0.00 66 1018.6
20260830140020 70 231 2.0 4.0 0.00 0.00 0.00 65 1018.5
20260830135017 70 230 2.0 6.0 0.00 0.00 0.00 66 1018.6
20260830134018 69 248 3.0 6.0 0.00 0.00 0.00 67 1018.8
20260830133041 68 247 2.0 4.0 0.00 0.00 0.00 68 1018.8
20260830132021 68 250 2.0 5.0 0.00 0.00 0.00 68 1018.8